EW6534 Weather Reports


time (UTC)temp
C
wind
direction
speed
KPH
gust
KPH
rain 1hr
cm
rain 24hr
cm
rain mn
cm
humidity
%
barometer
mb
20260903060012 22 176 1.6 4.8 0.00 0.00 0.00 90 1014.1
20260903054509 22 176 1.6 4.8 0.00 0.00 0.00 91 1014.1
20260903053004 22 155 1.6 3.2 0.00 0.00 0.00 91 1014.0
20260903051503 22 155 1.6 3.2 0.00 0.00 0.00 90 1014.0
20260903050101 22 155 0.0 0.0 0.00 0.00 0.00 90 1014.0
20260903044601 22 155 0.0 1.6 0.00 0.00 0.00 90 1013.7
20260903043052 22 155 0.0 1.6 0.00 0.00 0.00 90 1013.7
20260903041548 22 155 0.0 0.0 0.00 0.00 0.00 90 1013.6
20260903040044 22 155 0.0 0.0 0.00 0.00 0.00 90 1013.7
20260903034544 22 155 0.0 0.0 0.00 0.00 0.00 90 1013.7
20260903033043 23 155 0.0 0.0 0.00 0.00 0.00 90 1013.8
20260903031543 23 155 0.0 0.0 0.00 0.00 0.00 89 1013.9
20260903030042 23 155 0.0 1.6 0.00 0.00 0.00 89 1014.1
20260903024545 23 155 0.0 0.0 0.00 0.00 0.00 90 1014.1
20260903023041 23 155 0.0 0.0 0.00 0.00 0.00 89 1014.2
20260903021641 23 155 0.0 3.2 0.00 0.00 0.00 89 1014.2
20260903020040 23 155 0.0 1.6 0.00 0.00 0.00 89 1014.2
20260903014547 23 155 0.0 0.0 0.00 0.00 0.00 89 1014.2
20260903013039 24 155 0.0 0.0 0.00 0.00 0.00 88 1014.1
20260903011538 24 155 0.0 1.6 0.00 0.00 0.00 87 1014.0
20260903010037 25 155 0.0 1.6 0.00 0.00 0.00 87 1013.8
20260903004539 25 155 0.0 0.0 0.00 0.00 0.00 85 1013.6
20260903003036 26 155 1.6 3.2 0.00 0.00 0.00 82 1013.5
20260903001536 27 155 0.0 0.0 0.00 0.00 0.00 79 1013.5
20260903000036 28 155 0.0 1.6 0.00 0.00 0.00 77 1013.5
20260902234536 29 155 0.0 3.2 0.00 0.00 0.00 74 1013.4
20260902233034 30 155 0.0 4.8 0.00 0.00 0.00 71 1013.4
20260902231533 31 155 3.2 8.0 0.00 0.00 0.00 67 1013.5
20260902230032 31 157 4.8 8.0 0.00 0.00 0.00 65 1013.6
20260902224533 31 157 6.4 11.3 0.00 0.00 0.00 62 1013.5
20260902223032 32 196 8.0 16.1 0.00 0.00 0.00 59 1013.5
20260902221529 32 202 8.0 16.1 0.00 0.00 0.00 58 1013.6
20260902220028 32 207 9.7 17.7 0.00 0.00 0.00 58 1013.7
20260902214530 32 193 11.3 20.9 0.00 0.00 0.00 57 1013.8
20260902213030 32 199 11.3 17.7 0.00 0.00 0.00 57 1013.8
20260902211524 32 207 12.9 17.7 0.00 0.00 0.00 57 1013.9
20260902210039 32 192 9.7 16.1 0.00 0.00 0.00 58 1013.9
20260902204522 32 249 9.7 17.7 0.00 0.00 0.00 56 1014.1
20260902203021 32 214 9.7 16.1 0.00 0.00 0.00 57 1014.3
20260902201519 32 177 9.7 20.9 0.00 0.00 0.00 59 1014.3
20260902200023 32 165 12.9 19.3 0.00 0.00 0.00 58 1014.4
20260902194517 32 194 14.5 20.9 0.00 0.00 0.00 59 1014.7
20260902193014 32 230 8.0 16.1 0.00 0.00 0.00 60 1014.8
20260902191514 32 232 3.2 17.7 0.00 0.00 0.00 59 1015.0
20260902190011 32 167 11.3 20.9 0.00 0.00 0.00 58 1015.1
20260902184511 32 192 14.5 19.3 0.00 0.00 0.00 57 1015.2
20260902183009 32 205 11.3 24.1 0.00 0.00 0.00 62 1015.3
20260902181507 32 212 8.0 16.1 0.00 0.00 0.00 62 1015.4
20260902180007 32 181 9.7 19.3 0.00 0.00 0.00 64 1015.7
20260902174502 32 205 14.5 17.7 0.00 0.00 0.00 59 1015.5
20260902173100 32 166 11.3 17.7 0.00 0.00 0.00 64 1015.8
20260902171601 32 186 11.3 19.3 0.00 0.00 0.00 62 1015.8
20260902170055 31 241 9.7 20.9 0.00 0.00 0.00 63 1015.9
20260902164552 31 182 11.3 17.7 0.00 0.00 0.00 66 1016.0
20260902163055 31 209 8.0 12.9 0.00 0.00 0.00 67 1016.2
20260902161544 31 166 8.0 16.1 0.00 0.00 0.00 67 1016.3
20260902160040 30 267 3.2 14.5 0.00 0.00 0.00 67 1016.4
20260902154535 30 232 8.0 16.1 0.00 0.00 0.00 67 1016.4
20260902153032 30 203 6.4 12.9 0.00 0.00 0.00 70 1016.5
20260902151528 30 205 9.7 16.1 0.00 0.00 0.00 69 1016.5
20260902150024 29 196 6.4 12.9 0.00 0.00 0.00 72 1016.5
20260902144531 28 223 8.0 14.5 0.00 0.00 0.00 73 1016.6
20260902143013 28 229 9.7 16.1 0.00 0.00 0.00 73 1016.5
20260902141511 28 184 8.0 16.1 0.00 0.00 0.00 75 1016.4
20260902140006 27 176 8.0 14.5 0.00 0.00 0.00 76 1016.5
20260902134502 27 211 8.0 17.7 0.00 0.00 0.00 79 1016.4
20260902133105 26 210 8.0 14.5 0.00 0.00 0.00 80 1016.4
20260902131551 26 167 12.9 16.1 0.00 0.00 0.00 81 1016.4
20260902130051 25 174 9.7 19.3 0.00 0.00 0.00 84 1016.3
20260902124543 24 167 6.4 12.9 0.00 0.00 0.00 87 1016.3
20260902123038 23 183 4.8 9.7 0.00 0.00 0.00 89 1016.1
20260902121533 22 193 6.4 9.7 0.00 0.00 0.00 91 1016.1
20260902120031 22 105 1.6 4.8 0.00 0.00 0.00 94 1016.1
20260902114525 21 173 1.6 6.4 0.00 0.03 0.00 96 1016.0
20260902113021 20 170 0.0 0.0 0.00 0.03 0.00 95 1015.8
20260902111518 20 170 0.0 0.0 0.00 0.03 0.00 95 1015.6
20260902110017 20 170 0.0 3.2 0.00 0.03 0.00 95 1015.7
20260902104519 20 170 0.0 1.6 0.00 0.03 0.00 95 1015.7
20260902103015 20 170 0.0 1.6 0.00 0.03 0.00 94 1015.7
20260902101515 20 170 0.0 0.0 0.00 0.03 0.00 94 1015.6
20260902100013 20 170 0.0 0.0 0.00 0.03 0.00 94 1015.7
20260902094511 20 170 0.0 1.6 0.00 0.03 0.00 93 1015.6
20260902093008 20 170 0.0 0.0 0.00 0.03 0.00 93 1015.6
20260902091517 21 170 0.0 0.0 0.00 0.03 0.00 93 1015.5
20260902090005 21 170 0.0 0.0 0.00 0.03 0.00 91 1015.4
20260902084501 21 170 0.0 0.0 0.00 0.03 0.00 90 1015.4
20260902083059 22 170 0.0 0.0 0.00 0.03 0.00 91 1015.3
20260902081559 22 170 0.0 0.0 0.00 0.03 0.00 91 1015.2
20260902080112 22 170 0.0 1.6 0.00 0.03 0.00 90 1015.0
20260902074557 22 170 1.6 8.0 0.00 0.03 0.00 91 1014.9
20260902073106 21 166 4.8 6.4 0.00 0.03 0.00 92 1014.8
20260902071609 21 225 0.0 1.6 0.00 0.03 0.00 91 1014.8
20260902070053 22 225 1.6 3.2 0.00 0.03 0.00 91 1014.7
20260902064552 22 171 0.0 3.2 0.00 0.03 0.00 91 1014.7
20260902063051 21 171 1.6 4.8 0.00 0.03 0.00 91 1014.7
20260902061605 21 166 0.0 3.2 0.00 0.03 0.00 91 1014.7